Tracking 19717 objects as of 25-Jun-2019
HD Live streaming from Space Station
objects crossing your sky now

SL-14 DEB

Track SL-14 DEB now!
10-day predictions


NORAD ID: 39981
Int'l Code: 1987-068DH
Perigee: 926.4 km
Apogee: 936.5 km
Inclination: 82.6 °
Period: 103.5 minutes
Semi major axis: 7302 km
RCS: 0.0052 m2 (small)
Launch date: August 18, 1987
Source: Commonwealth of Independent States (former USSR) (CIS)
Launch site: PLESETSK MISSILE AND SPACE COMPLEX (PKMTR)

Note: This is SATELLITE DEBRIS
aabbcc
Your satellite tracking list
Your tracking list is empty




NASA's NSSDC Master Catalog

Two Line Element Set (TLE):
1 39981U 87068DH  19173.59795317  .00000182  00000-0  13273-3 0  9996
2 39981  82.5556 123.6391 0006904 259.6732 225.2079 13.91232312718203
Source of the keplerian elements: AFSPC